Погода Пушкинские Горы

Хотите узнать прогноз погоды Пушкинские Горы? Тогда Вам сюда: Погода Пушкинские Горы

Поиск расширенной информации на нашем сайте:

Полезная информация:

Новости сайта



02.01.2020
Опубликован Долгосрочный прогноз погоды по городам России и ближнего зарубежья на январь 2020 года.
Карты: Прогноз на январь и февраль 2020 года, Сравнение прогнозируемой аномалии приземной температуры воздуха на январь 2020 года по разным моделям.




Погода Пушкинские Горы - сегодня

Время (UTC), дата Ветер
(°,м/с) 
Видим.   Явления Облачность Т
(°С)
Тd
(°С)
f(%) Тe
(°С)
Pmin
(гПа)
dP
(гПа)
Po
(мм)
O2
(г/м3)
Тmin Tmax R s Состояние
почвы
09 19.09.20 280 (З) 20000 м    6/6 1000 м 
[Cu hum]
+14.5 +8.8 69 +15  1018  -0.1  754  287           
12 19.09.20 300 (СЗ) 20000 м    3/3 1000 м 
[Cu hum]
+16.5 +5.3 47 +17  1017.5  -0.4  754  286           
15 19.09.20 300 (СЗ) 20000 м    4/4 1000 м 
[Cu med, cong]
+14 +5.2 55 +15  1017.9  0.3  754  288           
18 19.09.20 290 (З) 20000 м    3/0 средняя 
[Ac trans]
+7.2 +5.3 88 +8  1019.3  1.1  755  296    +16.9       
21 19.09.20 тихо ()   20000 м    ясно 
+4.5 +4 97 +5  1020.6  1.1  756  299           
00 20.09.20 310 (СЗ) 20000 м    ясно 
+3.9 +3.5 97 +5  1021.4  0.8  756  300           
03 20.09.20 160 (Ю) 10 км    ясно 
+2.2 +1.9 98 +3  1022.4  0.9  757  302  +1.9         
06 20.09.20 170 (Ю) 0500 м  туман  10/0 верхняя 
[Cs]
+4.2 +4 99 +5  1023.5  1.2  758  300  +1.7        влажная 
09 20.09.20 170 (Ю) 10 км  {туман}  9/9 600 м кучево-дожд. 
[Cb cap]
+8.5 +7.7 95 +10  1023.7  0.4  758  295           
12 20.09.20 250 (З) 20000 м  {туман}  9/8 600 м кучево-дожд., верхняя 
[Cb cap|Ci fib]
+14.2 +6 58 +14  1022.3  -1.2  757  289           
15 20.09.20 280 (З) 20000 м    6/1 1000 м верхняя 
[Cu hum|Ci fib]
+13.1 +5.6 60 +14  1021.2  -1.1  757  290           
18 20.09.20 140 (ЮВ) 20000 м    ясно 
+5.8 +4.7 93 +7  1020.8  -0.7  756  298    +14.6       
21 20.09.20 170 (Ю) 20000 м    ясно 
+6.2 +5 92 +7  1019.7  -1.1  755  297           
00 21.09.20 180 (Ю) 20000 м    9/9 600 м кучево-дожд. 
[Cb cap]
+7 +5.8 92 +7  1018.8  -0.8  755  296           
03 21.09.20 200 (Ю) 20000 м    10/10 600 м 
[Sc]
+8 +6.1 88 +8  1017.7  -1.1  754  294  +5.3         
06 21.09.20 230 (ЮЗ) 20000 м    9/8 600 м средняя 
[Sc|Ac As]
+10.1 +8.3 89 +10  1017.5  -0.1  754  291  +5.4         
09 21.09.20 260 (З) 20000 м    9/5 600 м кучево-дожд., средняя 
[Cb cap|Ac As]
+13.7 +10.2 79 +15  1017.6  0.2  754  287           
12 21.09.20 270 (З) 20000 м    9/9 600 м кучево-дожд. 
[Cb cap]
+15.1 +9.8 71 +16  1017  -0.4  754  286           
15 21.09.20 240 (ЮЗ) 20000 м    8/3 1000 м средняя 
[Sc|Ac As]
+14.4 +10.4 77 +17  1016.9  -0.2  753  286           
18 21.09.20 200 (Ю) 20000 м    10/6 600 м средняя 
[Sc|Ac As]
+12.2 +9.8 85 +14  1016.1  -0.8  753  289    +15.8       
21 21.09.20 210 (ЮЗ) 20000 м    3/0 средняя 
[Ac trans]
+12.1 +10.2 88 +13  1014.5  -1.6  752  288           
00 22.09.20 210 (ЮЗ) 20000 м    5/0 средняя 
[Ac trans]
+10.8 +9.9 94 +12  1013.6  -1.1  751  289           
03 22.09.20 210 (ЮЗ) 20000 м    8/0 средняя 
[Ac trans]
+10 +9.1 94 +10  1012.8  -0.7  750  290  +10         
06 22.09.20 220 (ЮЗ) 20000 м    9/0 верхняя 
[Ci fib]
+11.6 +9.2 85 +12  1012.9  0.2  750  288  +9.9         
09 22.09.20 240 (ЮЗ) 20000 м    3/0 верхняя 
[Ci fib]
+17.8 +7.9 52 +18  1012.5  -0.2  750  282           
Время (UTC), дата Ветер
(°,м/с) 
Видим.   Явления Облачность Т
(°С)
Тd
(°С)
f(%) Тe
(°С)
Pmin
(гПа)
dP
(гПа)
Po
(мм)
O2
(г/м3)
Тmin Tmax R s Состояние
почвы

Для получения пояснительной информации подведите курсор к названию столбца.

ПОГОДА Пушкинские Горы - архив

Всё, что Вы хотите узнать о погоде Пушкинские Горы - удобно и подробно!

Выберите нужную дату (начиная с 1 января 2019* года) и нажмите кнопку "Найти".
Будут отображены архивные сводки погоды по пункту Пушкинские Горы, начиная с указанной даты.


Отображать данные в формате CSV (для использования в таблицах Excel)


Внимание! Наш архив погоды предназначен исключительно для личного некоммерческого использования в познавательных целях. Если Вам необходимы официальные справки о состоянии погоды (для производственных, юридических, коммерческих и т.п. целей), обращайтесь в органы Росгидромета.

*Примечание: данная дата относится к архиву по метеостанциям СССР (Россия, СНГ, Балтия).
Архив по метеостанциям Зарубежной Европы и Азии (кроме Китая) хранится 10 дней, по другим регионам земного шара (Китай, Африка, Америка, Австралия, Океания) - 1 день.

Пушкинские Горы - район местоположения метеостанции


Название, широта, долгота, высота метеостанции:
Пушкинские Горы 57°ш. 28.9°д. 108 м над ур. моря [Российская Федерация]

Дополнительная информация

В oтличие oт бoльшинства пoгoдных сайтoв мы публикуем пoдрoбную метеoинфoрмацию в детальнoм прoфессиoнальнoм фoрмате.

Характеристики температуры и влажнoсти вoздуха измеряются на высoте 2 м в тени вдали oт зданий и деревьев.
Скoрoсть ветра измеряется на высoте 10 м (на урoвне рoста челoвека скoрoсть ветра ниже в 1.5-2 раза). Если метеoстанция нахoдится в гoрoде или в лесу, тo скoрoсть ветра занижена на 2-4 м/с пo сравнению с oткрытым местoм. Скoрoсть ветра над акватoриями крупных рек и oзёр, а также на вершинах хoлмoв на 2-5 м/с выше, чем в oбычных услoвиях.
Атмoсфернoе давление в разных тoчках местнoсти мoжет значительнo oтличаться oт давления на метеoстанции, в зависимoсти oт услoвий рельефа (при пoдъёме на 10 м давление пoнижается примернo на 1 мм рт.ст.).